Skip Page Navigation
NASA JPL Caltech
NASA Logo - Jet Propulsion Laboratory + View the NASA Portal
+ Center for Near-Earth Object Studies
JPL Home Earth Solar System Stars & Galaxies Technology
JPL Solar System Dynamics
BODIES ORBITS EPHEMERIDES TOOLS PHYSICAL DATA DISCOVERY FAQ SITE MAP
JPL Small-Body Database Browser
Search: [ help ]  
108615 (2001 MF25)
Classification: Main-belt Asteroid          SPK-ID: 2108615
Ephemeris | Orbit Diagram | Orbital Elements | Mission Design | Physical Parameters | Discovery Circumstances | Close-Approach Data ]

[ show orbit diagram ]
Orbital Elements at Epoch 2459000.5 (2020-May-31.0) TDB
Reference: JPL 19 (heliocentric ecliptic J2000)
 Element Value Uncertainty (1-sigma)   Units 
e .2196111849182971 3.9574e-08  
a 2.627958757151788 1.3306e-08 au
q 2.050829620577268 1.0424e-07 au
i 9.606747712011973 5.0482e-06 deg
node 218.9234124043777 3.186e-05 deg
peri 69.07666064759231 3.4187e-05 deg
M 170.0635348745513 1.2644e-05 deg
tp 2458265.419426006178
(2018-May-26.91942601)
5.3837e-05 TDB
period 1556.059662249063
4.26
1.1818e-05
3.236e-08
d
yr
n .2313535969949065 1.7571e-09 deg/d
Q 3.205087893726307 1.6228e-08 au
  Orbit Determination Parameters
   # obs. used (total)      705  
   data-arc span      8088 days (22.14 yr)  
   first obs. used      1997-10-06  
   last obs. used      2019-11-28  
   planetary ephem.      DE431  
   SB-pert. ephem.      SB431-N16  
   condition code      0  
   norm. resid. RMS      .51319  
   source      ORB  
   producer      Otto Matic  
   solution date      2019-Dec-04 10:11:07  

Additional Information
 Earth MOID = 1.05819 au 
 Jupiter MOID = 2.03117 au 
 T_jup = 3.347 
[ show covariance matrix ]

Ephemeris | Orbit Diagram | Orbital Elements | Mission Design | Physical Parameters | Discovery Circumstances | Close-Approach Data ]

Physical Parameter Table
Parameter Symbol Value Units Sigma Reference Notes
absolute magnitude H 15.4   n/a MPO449650  
diameter diameter 2.201 km 0.585 urn:nasa:pds:neowise_diameters_albedos::2.0[mainbelt] (http://adsabs.harvard.edu/abs/2011ApJ...741...68M)  
geometric albedo albedo 0.277   0.174 urn:nasa:pds:neowise_diameters_albedos::2.0[mainbelt] (http://adsabs.harvard.edu/abs/2011ApJ...741...68M)  

108615 (2001 MF25)          Discovered 2001-Jun-17 by LONEOS at Anderson Mesa
Reference: 20051019/Numbers.arcLast Updated: 2005-10-26

[ show close-approach data ]
Ephemeris | Orbit Diagram | Orbital Elements | Mission Design | Physical Parameters | Discovery Circumstances | Close-Approach Data ]
ABOUT SSD CREDITS/AWARDS PRIVACY/COPYRIGHT GLOSSARY LINKS
FirstGov 2020-Sep-18 18:11 UT
(server date/time)  
NASA Home Page
Site Manager:   Ryan S. Park
Webmaster  Alan B. Chamberlin